Year,Month,Day,Hour,Minute,Value (Times are PST for temperature in C)
2009,07,02,00,00,10.40
2009,07,02,00,01,10.30
2009,07,02,00,02,10.30
2009,07,02,00,03,10.30
2009,07,02,00,04,10.30
2009,07,02,00,05,10.20
2009,07,02,00,06,10.20
2009,07,02,00,07,10.20
2009,07,02,00,08,10.20
2009,07,02,00,09,10.10
2009,07,02,00,10,10.10
2009,07,02,00,11,10.10
2009,07,02,00,12,10.10
2009,07,02,00,13,10.00
2009,07,02,00,14,10.00
2009,07,02,00,15,10.00
2009,07,02,00,16,9.90
2009,07,02,00,17,9.90
2009,07,02,00,18,9.90
2009,07,02,00,19,9.90
2009,07,02,00,20,9.90
2009,07,02,00,21,9.90
2009,07,02,00,22,9.80
2009,07,02,00,23,9.80
2009,07,02,00,24,9.80
2009,07,02,00,25,9.80
2009,07,02,00,26,9.70
2009,07,02,00,27,9.70
2009,07,02,00,28,9.70
2009,07,02,00,29,9.70
2009,07,02,00,30,9.60
2009,07,02,00,31,9.60
2009,07,02,00,32,9.60
2009,07,02,00,33,9.60
2009,07,02,00,34,9.60
2009,07,02,00,35,9.60
2009,07,02,00,36,9.50
2009,07,02,00,37,9.50
2009,07,02,00,38,9.50
2009,07,02,00,39,9.50
2009,07,02,00,40,9.50
2009,07,02,00,41,9.50
2009,07,02,00,42,9.50
2009,07,02,00,43,9.50
2009,07,02,00,44,9.40
2009,07,02,00,45,9.50
2009,07,02,00,46,9.40
2009,07,02,00,47,9.50
2009,07,02,00,48,9.50
2009,07,02,00,49,9.50
2009,07,02,00,50,9.50
2009,07,02,00,51,9.50
2009,07,02,00,52,9.50
2009,07,02,00,53,9.50
2009,07,02,00,54,9.50
2009,07,02,00,55,9.40
2009,07,02,00,56,9.40
2009,07,02,00,57,9.40
2009,07,02,00,58,9.40
2009,07,02,00,59,9.30
2009,07,02,01,00,9.30
2009,07,02,01,01,9.30
2009,07,02,01,02,9.30
2009,07,02,01,03,9.30
2009,07,02,01,04,9.20
2009,07,02,01,05,9.20
2009,07,02,01,06,9.20
2009,07,02,01,07,9.20
2009,07,02,01,08,9.20
2009,07,02,01,09,9.20
2009,07,02,01,10,9.10
2009,07,02,01,11,9.10
2009,07,02,01,12,9.10
2009,07,02,01,13,9.10
2009,07,02,01,14,9.10
2009,07,02,01,15,9.10
2009,07,02,01,16,9.10
2009,07,02,01,17,9.10
2009,07,02,01,18,9.10
2009,07,02,01,19,9.10
2009,07,02,01,20,9.10
2009,07,02,01,21,9.10
2009,07,02,01,22,9.10
2009,07,02,01,23,9.00
2009,07,02,01,24,9.00
2009,07,02,01,25,9.00
2009,07,02,01,26,8.90
2009,07,02,01,27,8.90
2009,07,02,01,28,8.90
2009,07,02,01,29,8.90
2009,07,02,01,30,8.90
2009,07,02,01,31,8.80
2009,07,02,01,32,8.80
2009,07,02,01,33,8.80
2009,07,02,01,34,8.80
2009,07,02,01,35,8.80
2009,07,02,01,36,8.80
2009,07,02,01,37,8.80
2009,07,02,01,38,8.70
2009,07,02,01,39,8.70
2009,07,02,01,40,8.70
2009,07,02,01,41,8.70
2009,07,02,01,42,8.70
2009,07,02,01,43,8.70
2009,07,02,01,44,8.70
2009,07,02,01,45,8.60
2009,07,02,01,46,8.60
2009,07,02,01,47,8.60
2009,07,02,01,48,8.60
2009,07,02,01,49,8.60
2009,07,02,01,50,8.60
2009,07,02,01,51,8.60
2009,07,02,01,52,8.60
2009,07,02,01,53,8.60
2009,07,02,01,54,8.60
2009,07,02,01,55,8.60
2009,07,02,01,56,8.60
2009,07,02,01,57,8.60
2009,07,02,01,58,8.60
2009,07,02,01,59,8.60
2009,07,02,02,00,8.50
2009,07,02,02,01,8.50
2009,07,02,02,02,8.50
2009,07,02,02,03,8.50
2009,07,02,02,04,8.50
2009,07,02,02,05,8.50
2009,07,02,02,06,8.50
2009,07,02,02,07,8.40
2009,07,02,02,08,8.40
2009,07,02,02,09,8.40
2009,07,02,02,10,8.40
2009,07,02,02,11,8.40
2009,07,02,02,12,8.40
2009,07,02,02,13,8.40
2009,07,02,02,14,8.40
2009,07,02,02,15,8.40
2009,07,02,02,16,8.40
2009,07,02,02,17,8.40
2009,07,02,02,18,8.30
2009,07,02,02,19,8.30
2009,07,02,02,20,8.30
2009,07,02,02,21,8.30
2009,07,02,02,22,8.30
2009,07,02,02,23,8.30
2009,07,02,02,24,8.30
2009,07,02,02,25,8.30
2009,07,02,02,26,8.30
2009,07,02,02,27,8.30
2009,07,02,02,28,8.30
2009,07,02,02,29,8.30
2009,07,02,02,30,8.30
2009,07,02,02,31,8.30
2009,07,02,02,32,8.30
2009,07,02,02,33,8.30
2009,07,02,02,34,8.30
2009,07,02,02,35,8.30
2009,07,02,02,36,8.30
2009,07,02,02,37,8.30
2009,07,02,02,38,8.30
2009,07,02,02,39,8.20
2009,07,02,02,40,8.20
2009,07,02,02,41,8.20
2009,07,02,02,42,8.20
2009,07,02,02,43,8.20
2009,07,02,02,44,8.20
2009,07,02,02,45,8.20
2009,07,02,02,46,8.20
2009,07,02,02,47,8.20
2009,07,02,02,48,8.10
2009,07,02,02,49,8.10
2009,07,02,02,50,8.10
2009,07,02,02,51,8.10
2009,07,02,02,52,8.10
2009,07,02,02,53,8.10
2009,07,02,02,54,8.10
2009,07,02,02,55,8.10
2009,07,02,02,56,8.10
2009,07,02,02,57,8.10
2009,07,02,02,58,8.10
2009,07,02,02,59,8.10
2009,07,02,03,00,8.10
2009,07,02,03,01,8.10
2009,07,02,03,02,8.10
2009,07,02,03,03,8.10
2009,07,02,03,04,8.00
2009,07,02,03,05,8.10
2009,07,02,03,06,8.00
2009,07,02,03,07,8.00
2009,07,02,03,08,8.00
2009,07,02,03,09,8.00
2009,07,02,03,10,8.00
2009,07,02,03,11,8.00
2009,07,02,03,12,8.00
2009,07,02,03,13,8.00
2009,07,02,03,14,8.00
2009,07,02,03,15,8.00
2009,07,02,03,16,8.00
2009,07,02,03,17,8.00
2009,07,02,03,18,8.00
2009,07,02,03,19,8.00
2009,07,02,03,20,8.00
2009,07,02,03,21,8.00
2009,07,02,03,22,7.90
2009,07,02,03,23,7.90
2009,07,02,03,24,7.90
2009,07,02,03,25,7.90
2009,07,02,03,26,7.90
2009,07,02,03,27,7.90
2009,07,02,03,28,7.90
2009,07,02,03,29,7.90
2009,07,02,03,30,7.80
2009,07,02,03,31,7.80
2009,07,02,03,32,7.80
2009,07,02,03,33,7.80
2009,07,02,03,34,7.80
2009,07,02,03,35,7.80
2009,07,02,03,36,7.80
2009,07,02,03,37,7.70
2009,07,02,03,38,7.70
2009,07,02,03,39,7.70
2009,07,02,03,40,7.70
2009,07,02,03,41,7.70
2009,07,02,03,42,7.70
2009,07,02,03,43,7.70
2009,07,02,03,44,7.60
2009,07,02,03,45,7.60
2009,07,02,03,46,7.60
2009,07,02,03,47,7.60
2009,07,02,03,48,7.60
2009,07,02,03,49,7.60
2009,07,02,03,50,7.60
2009,07,02,03,51,7.60
2009,07,02,03,52,7.60
2009,07,02,03,53,7.60
2009,07,02,03,54,7.50
2009,07,02,03,55,7.50
2009,07,02,03,56,7.50
2009,07,02,03,57,7.50
2009,07,02,03,58,7.50
2009,07,02,03,59,7.50
2009,07,02,04,00,7.50
2009,07,02,04,01,7.50
2009,07,02,04,02,7.40
2009,07,02,04,03,7.40
2009,07,02,04,15,7.40
2009,07,02,04,25,7.40
2009,07,02,04,39,7.30
2009,07,02,04,50,7.30
2009,07,02,05,00,7.20
2009,07,02,05,12,7.10
2009,07,02,05,23,7.10
2009,07,02,05,34,7.00
2009,07,02,05,45,6.90
2009,07,02,05,58,7.00
2009,07,02,06,11,7.10
2009,07,02,06,22,7.20
2009,07,02,06,32,7.20
2009,07,02,06,39,7.30
2009,07,02,06,46,7.50
2009,07,02,06,47,7.60
2009,07,02,06,48,7.60
2009,07,02,06,49,7.60
2009,07,02,06,50,7.60
2009,07,02,06,51,7.60
2009,07,02,06,52,7.70
2009,07,02,06,53,7.70
2009,07,02,06,54,7.70
2009,07,02,06,55,7.80
2009,07,02,06,56,7.80
2009,07,02,06,57,7.80
2009,07,02,06,58,7.90
2009,07,02,06,59,7.90
2009,07,02,07,00,8.00
2009,07,02,07,01,8.00
2009,07,02,07,02,8.10
2009,07,02,07,03,8.10
2009,07,02,07,04,8.10
2009,07,02,07,05,8.20
2009,07,02,07,06,8.20
2009,07,02,07,07,8.20
2009,07,02,07,08,8.30
2009,07,02,07,09,8.30
2009,07,02,07,10,8.40
2009,07,02,07,11,8.40
2009,07,02,07,12,8.50
2009,07,02,07,13,8.50
2009,07,02,07,14,8.60
2009,07,02,07,15,8.60
2009,07,02,07,16,8.70
2009,07,02,07,17,8.80
2009,07,02,07,18,8.80
2009,07,02,07,19,8.90
2009,07,02,07,20,9.00
2009,07,02,07,21,9.10
2009,07,02,07,22,9.10
2009,07,02,07,23,9.20
2009,07,02,07,24,9.30
2009,07,02,07,25,9.50
2009,07,02,07,26,9.60
2009,07,02,07,27,9.80
2009,07,02,07,28,9.90
2009,07,02,07,29,10.10
2009,07,02,07,30,10.20
2009,07,02,07,31,10.40
2009,07,02,07,32,10.60
2009,07,02,07,33,10.80
2009,07,02,07,34,11.00
2009,07,02,07,35,11.20
2009,07,02,07,36,11.40
2009,07,02,07,37,11.60
2009,07,02,07,38,11.80
2009,07,02,07,39,11.90
2009,07,02,07,40,12.10
2009,07,02,07,41,12.30
2009,07,02,07,42,12.50
2009,07,02,07,43,12.70
2009,07,02,07,44,12.90
2009,07,02,07,45,13.00
2009,07,02,07,46,13.20
2009,07,02,07,47,13.30
2009,07,02,07,48,13.50
2009,07,02,07,49,13.70
2009,07,02,07,50,13.90
2009,07,02,07,51,14.10
2009,07,02,07,52,14.30
2009,07,02,07,53,14.40
2009,07,02,07,54,14.70
2009,07,02,07,55,14.80
2009,07,02,07,56,15.00
2009,07,02,07,57,15.00
2009,07,02,07,58,15.20
2009,07,02,07,59,15.40
2009,07,02,08,00,15.50
2009,07,02,08,01,15.60
2009,07,02,08,02,15.80
2009,07,02,08,03,15.90
2009,07,02,08,04,16.10
2009,07,02,08,05,16.20
2009,07,02,08,06,16.30
2009,07,02,08,07,16.50
2009,07,02,08,08,16.70
2009,07,02,08,09,16.80
2009,07,02,08,10,16.90
2009,07,02,08,11,17.00
2009,07,02,08,12,17.20
2009,07,02,08,13,17.30
2009,07,02,08,14,17.40
2009,07,02,08,15,17.50
2009,07,02,08,16,17.60
2009,07,02,08,17,17.70
2009,07,02,08,18,17.80
2009,07,02,08,19,17.80
2009,07,02,08,20,17.90
2009,07,02,08,21,18.00
2009,07,02,08,22,18.10
2009,07,02,08,23,18.20
2009,07,02,08,24,18.30
2009,07,02,08,25,18.30
2009,07,02,08,26,18.40
2009,07,02,08,27,18.50
2009,07,02,08,28,18.60
2009,07,02,08,29,18.70
2009,07,02,08,30,18.70
2009,07,02,08,31,18.80
2009,07,02,08,32,18.80
2009,07,02,08,33,18.80
2009,07,02,08,34,18.90
2009,07,02,08,35,18.90
2009,07,02,08,36,18.90
2009,07,02,08,37,18.90
2009,07,02,08,38,18.90
2009,07,02,08,39,18.90
2009,07,02,08,40,18.90
2009,07,02,08,41,18.90
2009,07,02,08,42,18.90
2009,07,02,08,43,19.00
2009,07,02,08,44,19.10
2009,07,02,08,45,19.10
2009,07,02,08,46,19.20
2009,07,02,08,47,19.20
2009,07,02,08,48,19.30
2009,07,02,08,49,19.30
2009,07,02,08,50,19.30
2009,07,02,08,51,19.30
2009,07,02,08,52,19.30
2009,07,02,08,53,19.40
2009,07,02,08,54,19.40
2009,07,02,08,55,19.40
2009,07,02,08,56,19.50
2009,07,02,08,57,19.50
2009,07,02,08,58,19.50
2009,07,02,08,59,19.50
2009,07,02,09,00,19.50
2009,07,02,09,01,19.50
2009,07,02,09,02,19.50
2009,07,02,09,03,19.50
2009,07,02,09,04,19.50
2009,07,02,09,05,19.60
2009,07,02,09,06,19.60
2009,07,02,09,07,19.70
2009,07,02,09,08,19.80
2009,07,02,09,09,19.90
2009,07,02,09,10,20.00
2009,07,02,09,11,20.00
2009,07,02,09,12,20.10
2009,07,02,09,13,20.10
2009,07,02,09,14,20.10
2009,07,02,09,15,20.20
2009,07,02,09,16,20.30
2009,07,02,09,17,20.30
2009,07,02,09,18,20.30
2009,07,02,09,19,20.30
2009,07,02,09,20,20.30
2009,07,02,09,21,20.30
2009,07,02,09,22,20.20
2009,07,02,09,23,20.20
2009,07,02,09,24,20.20
2009,07,02,09,25,20.20
2009,07,02,09,26,20.20
2009,07,02,09,27,20.20
2009,07,02,09,28,20.20
2009,07,02,09,29,20.20
2009,07,02,09,30,20.30
2009,07,02,09,31,20.30
2009,07,02,09,32,20.40
2009,07,02,09,33,20.40
2009,07,02,09,34,20.50
2009,07,02,09,35,20.50
2009,07,02,09,36,20.50
2009,07,02,09,37,20.50
2009,07,02,09,38,20.50
2009,07,02,09,39,20.60
2009,07,02,09,40,20.60
2009,07,02,09,41,20.70
2009,07,02,09,42,20.70
2009,07,02,09,43,20.70
2009,07,02,09,44,20.70
2009,07,02,09,45,20.70
2009,07,02,09,46,20.70
2009,07,02,09,47,20.70
2009,07,02,09,48,20.70
2009,07,02,09,49,20.80
2009,07,02,09,50,20.80
2009,07,02,09,51,20.80
2009,07,02,09,52,20.80
2009,07,02,09,53,20.80
2009,07,02,09,54,20.70
2009,07,02,09,55,20.70
2009,07,02,09,56,20.70
2009,07,02,09,57,20.70
2009,07,02,09,58,20.70
2009,07,02,09,59,20.70
2009,07,02,10,00,20.80
2009,07,02,10,01,20.80
2009,07,02,10,02,20.80
2009,07,02,10,03,20.90
2009,07,02,10,04,20.90
2009,07,02,10,05,21.00
2009,07,02,10,06,21.00
2009,07,02,10,07,21.10
2009,07,02,10,08,21.10
2009,07,02,10,09,21.10
2009,07,02,10,10,21.20
2009,07,02,10,11,21.20
2009,07,02,10,12,21.30
2009,07,02,10,13,21.30
2009,07,02,10,14,21.40
2009,07,02,10,15,21.40
2009,07,02,10,16,21.40
2009,07,02,10,17,21.40
2009,07,02,10,18,21.40
2009,07,02,10,19,21.40
2009,07,02,10,20,21.40
2009,07,02,10,21,21.40
2009,07,02,10,22,21.40
2009,07,02,10,23,21.40
2009,07,02,10,24,21.40
2009,07,02,10,25,21.30
2009,07,02,10,26,21.30
2009,07,02,10,27,21.30
2009,07,02,10,28,21.30
2009,07,02,10,29,21.30
2009,07,02,10,30,21.30
2009,07,02,10,31,21.30
2009,07,02,10,32,21.30
2009,07,02,10,33,21.30
2009,07,02,10,34,21.30
2009,07,02,10,35,21.30
2009,07,02,10,36,21.30
2009,07,02,10,37,21.30
2009,07,02,10,38,21.30
2009,07,02,10,39,21.30
2009,07,02,10,40,21.30
2009,07,02,10,41,21.40
2009,07,02,10,42,21.40
2009,07,02,10,43,21.50
2009,07,02,10,44,21.60
2009,07,02,10,45,21.60
2009,07,02,10,46,21.60
2009,07,02,10,47,21.50
2009,07,02,10,48,21.50
2009,07,02,10,49,21.40
2009,07,02,10,50,21.40
2009,07,02,10,51,21.40
2009,07,02,10,52,21.50
2009,07,02,10,53,21.50
2009,07,02,10,54,21.50
2009,07,02,10,55,21.60
2009,07,02,10,56,21.60
2009,07,02,10,57,21.60
2009,07,02,10,58,21.70
2009,07,02,10,59,21.70
2009,07,02,11,00,21.80
2009,07,02,11,01,21.80
2009,07,02,11,02,21.90
2009,07,02,11,03,21.90
2009,07,02,11,04,21.90
2009,07,02,11,05,21.90
2009,07,02,11,06,21.80
2009,07,02,11,07,21.80
2009,07,02,11,08,21.70
2009,07,02,11,09,21.70
2009,07,02,11,10,21.60
2009,07,02,11,11,21.60
2009,07,02,11,12,21.60
2009,07,02,11,13,21.60
2009,07,02,11,14,21.70
2009,07,02,11,15,21.70
2009,07,02,11,16,21.80
2009,07,02,11,17,21.80
2009,07,02,11,18,21.80
2009,07,02,11,19,21.80
2009,07,02,11,20,21.80
2009,07,02,11,21,21.80
2009,07,02,11,22,21.80
2009,07,02,11,23,21.80
2009,07,02,11,24,21.90
2009,07,02,11,25,22.00
2009,07,02,11,26,22.10
2009,07,02,11,27,22.10
2009,07,02,11,28,22.10
2009,07,02,11,29,22.10
2009,07,02,11,30,22.00
2009,07,02,11,31,22.10
2009,07,02,11,32,22.10
2009,07,02,11,33,22.20
2009,07,02,11,34,22.30
2009,07,02,11,35,22.30
2009,07,02,11,36,22.30
2009,07,02,11,37,22.40
2009,07,02,11,38,22.50
2009,07,02,11,39,22.50
2009,07,02,11,40,22.50
2009,07,02,11,41,22.50
2009,07,02,11,42,22.50
2009,07,02,11,43,22.50
2009,07,02,11,44,22.50
2009,07,02,11,45,22.50
2009,07,02,11,46,22.50
2009,07,02,11,47,22.50
2009,07,02,11,48,22.50
2009,07,02,11,49,22.50
2009,07,02,11,50,22.50
2009,07,02,11,51,22.60
2009,07,02,11,52,22.60
2009,07,02,11,53,22.70
2009,07,02,11,54,22.80
2009,07,02,11,55,22.80
2009,07,02,11,56,22.90
2009,07,02,11,57,22.90
2009,07,02,11,58,23.00
2009,07,02,11,59,23.00
2009,07,02,12,00,23.00
2009,07,02,12,01,23.10
2009,07,02,12,02,23.10
2009,07,02,12,03,23.10
2009,07,02,12,04,23.20
2009,07,02,12,05,23.20
2009,07,02,12,06,23.20
2009,07,02,12,07,23.20
2009,07,02,12,08,23.20
2009,07,02,12,09,23.30
2009,07,02,12,10,23.40
2009,07,02,12,11,23.50
2009,07,02,12,12,23.50
2009,07,02,12,13,23.50
2009,07,02,12,14,23.50
2009,07,02,12,15,23.40
2009,07,02,12,16,23.50
2009,07,02,12,17,23.50
2009,07,02,12,18,23.60
2009,07,02,12,19,23.70
2009,07,02,12,20,23.70
2009,07,02,12,21,23.80
2009,07,02,12,22,23.80
2009,07,02,12,23,23.90
2009,07,02,12,24,23.90
2009,07,02,12,25,23.90
2009,07,02,12,26,23.90
2009,07,02,12,27,23.90
2009,07,02,12,28,23.90
2009,07,02,12,29,24.00
2009,07,02,12,30,24.00
2009,07,02,12,31,24.10
2009,07,02,12,32,24.10
2009,07,02,12,33,24.10
2009,07,02,12,34,24.10
2009,07,02,12,35,24.10
2009,07,02,12,36,24.10
2009,07,02,12,37,24.10
2009,07,02,12,38,24.20
2009,07,02,12,39,24.20
2009,07,02,12,40,24.10
2009,07,02,12,41,24.10
2009,07,02,12,42,24.10
2009,07,02,12,43,24.10
2009,07,02,12,44,24.10
2009,07,02,12,45,24.20
2009,07,02,12,46,24.20
2009,07,02,12,47,24.20
2009,07,02,12,48,24.20
2009,07,02,12,49,24.20
2009,07,02,12,50,24.30
2009,07,02,12,51,24.30
2009,07,02,12,52,24.40
2009,07,02,12,53,24.50
2009,07,02,12,54,24.50
2009,07,02,12,55,24.60
2009,07,02,12,56,24.60
2009,07,02,12,57,24.50
2009,07,02,12,58,24.40
2009,07,02,12,59,24.40
2009,07,02,13,00,24.40
2009,07,02,13,01,24.50
2009,07,02,13,02,24.50
2009,07,02,13,03,24.40
2009,07,02,13,04,24.50
2009,07,02,13,05,24.60
2009,07,02,13,06,24.70
2009,07,02,13,07,24.80
2009,07,02,13,08,24.80
2009,07,02,13,09,24.80
2009,07,02,13,10,24.80
2009,07,02,13,11,24.90
2009,07,02,13,12,24.90
2009,07,02,13,13,24.90
2009,07,02,13,14,24.70
2009,07,02,13,15,24.70
2009,07,02,13,16,24.70
2009,07,02,13,17,24.70
2009,07,02,13,18,24.80
2009,07,02,13,19,24.80
2009,07,02,13,20,24.80
2009,07,02,13,21,24.80
2009,07,02,13,22,24.70
2009,07,02,13,23,24.70
2009,07,02,13,24,24.80
2009,07,02,13,25,24.80
2009,07,02,13,26,24.80
2009,07,02,13,27,24.80
2009,07,02,13,28,24.90
2009,07,02,13,29,25.00
2009,07,02,13,30,25.10
2009,07,02,13,31,25.10
2009,07,02,13,32,25.20
2009,07,02,13,33,25.30
2009,07,02,13,34,25.30
2009,07,02,13,35,25.40
2009,07,02,13,36,25.50
2009,07,02,13,37,25.50
2009,07,02,13,38,25.50
2009,07,02,13,39,25.40
2009,07,02,13,40,25.40
2009,07,02,13,41,25.40
2009,07,02,13,42,25.30
2009,07,02,13,43,25.20
2009,07,02,13,44,25.10
2009,07,02,13,45,24.90
2009,07,02,13,46,24.90
2009,07,02,13,47,24.90
2009,07,02,13,48,24.90
2009,07,02,13,49,24.90
2009,07,02,13,50,24.90
2009,07,02,13,51,24.90
2009,07,02,13,52,24.90
2009,07,02,13,53,25.20
2009,07,02,13,54,25.30
2009,07,02,13,55,25.30
2009,07,02,13,56,25.30
2009,07,02,13,57,25.30
2009,07,02,13,58,25.20
2009,07,02,13,59,25.10
2009,07,02,14,00,25.00
2009,07,02,14,01,24.90
2009,07,02,14,02,24.90
2009,07,02,14,03,24.90
2009,07,02,14,04,25.00
2009,07,02,14,05,25.10
2009,07,02,14,06,25.20
2009,07,02,14,07,25.20
2009,07,02,14,08,25.30
2009,07,02,14,09,25.30
2009,07,02,14,10,25.40
2009,07,02,14,11,25.50
2009,07,02,14,12,25.60
2009,07,02,14,13,25.70
2009,07,02,14,14,25.80
2009,07,02,14,15,25.90
2009,07,02,14,16,25.90
2009,07,02,14,17,26.00
2009,07,02,14,18,26.00
2009,07,02,14,19,26.00
2009,07,02,14,20,25.90
2009,07,02,14,21,25.80
2009,07,02,14,22,25.70
2009,07,02,14,23,25.70
2009,07,02,14,24,25.70
2009,07,02,14,25,25.70
2009,07,02,14,26,25.70
2009,07,02,14,27,25.80
2009,07,02,14,28,25.90
2009,07,02,14,29,25.90
2009,07,02,14,30,26.00
2009,07,02,14,31,26.20
2009,07,02,14,32,26.20
2009,07,02,14,33,26.40
2009,07,02,14,34,26.50
2009,07,02,14,35,26.60
2009,07,02,14,36,26.60
2009,07,02,14,37,26.70
2009,07,02,14,38,26.60
2009,07,02,14,39,26.60
2009,07,02,14,40,26.60
2009,07,02,14,41,26.60
2009,07,02,14,42,26.60
2009,07,02,14,43,26.60
2009,07,02,14,44,26.60
2009,07,02,14,45,26.60
2009,07,02,14,46,26.60
2009,07,02,14,47,26.60
2009,07,02,14,48,26.60
2009,07,02,14,49,26.60
2009,07,02,14,50,26.60
2009,07,02,14,51,26.50
2009,07,02,14,52,26.50
2009,07,02,14,53,26.50
2009,07,02,14,54,26.50
2009,07,02,14,55,26.60
2009,07,02,14,56,26.60
2009,07,02,14,57,26.70
2009,07,02,14,58,26.80
2009,07,02,14,59,26.80
2009,07,02,15,00,26.80
2009,07,02,15,01,26.80
2009,07,02,15,02,26.80
2009,07,02,15,03,26.80
2009,07,02,15,04,26.90
2009,07,02,15,05,27.00
2009,07,02,15,06,27.00
2009,07,02,15,07,27.10
2009,07,02,15,08,27.10
2009,07,02,15,09,27.10
2009,07,02,15,10,27.10
2009,07,02,15,11,27.10
2009,07,02,15,12,27.10
2009,07,02,15,13,27.20
2009,07,02,15,14,27.20
2009,07,02,15,15,27.30
2009,07,02,15,16,27.40
2009,07,02,15,17,27.50
2009,07,02,15,18,27.60
2009,07,02,15,19,27.70
2009,07,02,15,20,27.70
2009,07,02,15,21,27.70
2009,07,02,15,22,27.60
2009,07,02,15,23,27.50
2009,07,02,15,24,27.40
2009,07,02,15,25,27.40
2009,07,02,15,26,27.30
2009,07,02,15,27,27.40
2009,07,02,15,28,27.40
2009,07,02,15,29,27.50
2009,07,02,15,30,27.50
2009,07,02,15,31,27.60
2009,07,02,15,32,27.70
2009,07,02,15,33,27.80
2009,07,02,15,34,27.90
2009,07,02,15,35,27.90
2009,07,02,15,36,27.90
2009,07,02,15,37,28.00
2009,07,02,15,38,28.10
2009,07,02,15,39,28.00
2009,07,02,15,40,27.80
2009,07,02,15,41,27.80
2009,07,02,15,42,27.70
2009,07,02,15,43,27.70
2009,07,02,15,44,27.70
2009,07,02,15,45,27.80
2009,07,02,15,46,27.90
2009,07,02,15,47,28.00
2009,07,02,15,48,28.10
2009,07,02,15,49,28.20
2009,07,02,15,50,28.30
2009,07,02,15,51,28.40
2009,07,02,15,52,28.40
2009,07,02,15,53,28.40
2009,07,02,15,54,28.40
2009,07,02,15,55,28.30
2009,07,02,15,56,28.20
2009,07,02,15,57,28.00
2009,07,02,15,58,27.80
2009,07,02,15,59,27.60
2009,07,02,16,00,27.50
2009,07,02,16,01,27.40
2009,07,02,16,02,27.30
2009,07,02,16,03,27.30
2009,07,02,16,04,27.30
2009,07,02,16,05,27.30
2009,07,02,16,06,27.30
2009,07,02,16,07,27.30
2009,07,02,16,08,27.40
2009,07,02,16,09,27.40
2009,07,02,16,10,27.30
2009,07,02,16,11,27.30
2009,07,02,16,12,27.20
2009,07,02,16,13,27.10
2009,07,02,16,14,27.10
2009,07,02,16,15,27.10
2009,07,02,16,16,27.10
2009,07,02,16,17,27.10
2009,07,02,16,18,27.10
2009,07,02,16,19,27.10
2009,07,02,16,20,27.10
2009,07,02,16,21,27.10
2009,07,02,16,22,27.00
2009,07,02,16,23,27.00
2009,07,02,16,24,27.00
2009,07,02,16,25,26.90
2009,07,02,16,26,26.80
2009,07,02,16,27,26.70
2009,07,02,16,28,26.70
2009,07,02,16,29,26.70
2009,07,02,16,30,26.50
2009,07,02,16,31,26.30
2009,07,02,16,32,26.20
2009,07,02,16,33,26.20
2009,07,02,16,34,26.10
2009,07,02,16,35,26.10
2009,07,02,16,36,26.10
2009,07,02,16,37,26.10
2009,07,02,16,38,26.10
2009,07,02,16,39,26.00
2009,07,02,16,40,26.00
2009,07,02,16,41,25.90
2009,07,02,16,42,25.90
2009,07,02,16,43,25.70
2009,07,02,16,44,25.70
2009,07,02,16,45,25.60
2009,07,02,16,46,25.60
2009,07,02,16,47,25.60
2009,07,02,16,48,25.70
2009,07,02,16,49,25.70
2009,07,02,16,50,25.70
2009,07,02,16,51,25.70
2009,07,02,16,52,25.80
2009,07,02,16,53,25.80
2009,07,02,16,54,25.90
2009,07,02,16,55,25.90
2009,07,02,16,56,25.90
2009,07,02,16,57,25.90
2009,07,02,16,58,26.00
2009,07,02,16,59,26.00
2009,07,02,17,00,26.10
2009,07,02,17,01,26.00
2009,07,02,17,02,26.00
2009,07,02,17,03,26.00
2009,07,02,17,04,25.90
2009,07,02,17,05,25.80
2009,07,02,17,06,25.70
2009,07,02,17,07,25.70
2009,07,02,17,08,25.60
2009,07,02,17,09,25.60
2009,07,02,17,10,25.60
2009,07,02,17,11,25.60
2009,07,02,17,12,25.60
2009,07,02,17,13,25.60
2009,07,02,17,14,25.50
2009,07,02,17,15,25.50
2009,07,02,17,16,25.60
2009,07,02,17,17,25.60
2009,07,02,17,18,25.60
2009,07,02,17,19,25.70
2009,07,02,17,20,25.70
2009,07,02,17,21,25.70
2009,07,02,17,22,25.70
2009,07,02,17,23,25.70
2009,07,02,17,24,25.70
2009,07,02,17,25,25.60
2009,07,02,17,26,25.60
2009,07,02,17,27,25.50
2009,07,02,17,28,25.40
2009,07,02,17,29,25.30
2009,07,02,17,30,25.30
2009,07,02,17,31,25.30
2009,07,02,17,32,25.30
2009,07,02,17,33,25.30
2009,07,02,17,34,25.30
2009,07,02,17,35,25.20
2009,07,02,17,36,25.20
2009,07,02,17,37,25.20
2009,07,02,17,38,25.10
2009,07,02,17,39,25.10
2009,07,02,17,40,25.00
2009,07,02,17,41,24.90
2009,07,02,17,42,24.90
2009,07,02,17,43,24.90
2009,07,02,17,44,24.80
2009,07,02,17,45,24.90
2009,07,02,17,46,24.90
2009,07,02,17,47,24.90
2009,07,02,17,48,24.90
2009,07,02,17,49,25.00
2009,07,02,17,50,25.00
2009,07,02,17,51,25.00
2009,07,02,17,52,25.00
2009,07,02,17,53,25.00
2009,07,02,17,54,25.00
2009,07,02,17,55,25.00
2009,07,02,17,56,25.00
2009,07,02,17,57,25.00
2009,07,02,17,58,25.00
2009,07,02,17,59,25.00
2009,07,02,18,00,24.90
2009,07,02,18,01,24.90
2009,07,02,18,02,25.00
2009,07,02,18,03,25.00
2009,07,02,18,04,25.00
2009,07,02,18,05,25.00
2009,07,02,18,06,25.10
2009,07,02,18,07,25.10
2009,07,02,18,08,25.10
2009,07,02,18,09,25.00
2009,07,02,18,10,25.00
2009,07,02,18,11,25.00
2009,07,02,18,12,25.00
2009,07,02,18,13,25.00
2009,07,02,18,14,24.90
2009,07,02,18,15,24.90
2009,07,02,18,16,24.90
2009,07,02,18,17,24.90
2009,07,02,18,18,24.90
2009,07,02,18,19,24.80
2009,07,02,18,20,24.80
2009,07,02,18,21,24.80
2009,07,02,18,22,24.80
2009,07,02,18,23,24.80
2009,07,02,18,24,24.70
2009,07,02,18,25,24.70
2009,07,02,18,26,24.70
2009,07,02,18,27,24.60
2009,07,02,18,28,24.60
2009,07,02,18,29,24.60
2009,07,02,18,30,24.60
2009,07,02,18,31,24.70
2009,07,02,18,32,24.80
2009,07,02,18,33,24.80
2009,07,02,18,34,24.90
2009,07,02,18,35,24.90
2009,07,02,18,36,24.90
2009,07,02,18,37,25.00
2009,07,02,18,38,25.00
2009,07,02,18,39,25.00
2009,07,02,18,40,25.10
2009,07,02,18,41,25.10
2009,07,02,18,42,25.10
2009,07,02,18,43,25.10
2009,07,02,18,44,25.10
2009,07,02,18,45,25.10
2009,07,02,18,46,25.10
2009,07,02,18,47,25.10
2009,07,02,18,48,25.00
2009,07,02,18,49,25.00
2009,07,02,18,50,25.00
2009,07,02,18,51,25.00
2009,07,02,18,52,25.00
2009,07,02,18,53,25.00
2009,07,02,18,54,25.00
2009,07,02,18,55,25.00
2009,07,02,18,56,25.00
2009,07,02,18,57,25.10
2009,07,02,18,58,25.10
2009,07,02,18,59,25.10
2009,07,02,19,00,25.20
2009,07,02,19,01,25.20
2009,07,02,19,02,25.20
2009,07,02,19,03,25.20
2009,07,02,19,04,25.20
2009,07,02,19,05,25.20
2009,07,02,19,06,25.30
2009,07,02,19,07,25.20
2009,07,02,19,08,25.20
2009,07,02,19,09,25.10
2009,07,02,19,10,25.10
2009,07,02,19,11,25.10
2009,07,02,19,12,25.00
2009,07,02,19,13,25.00
2009,07,02,19,14,24.90
2009,07,02,19,15,24.90
2009,07,02,19,16,24.80
2009,07,02,19,17,24.80
2009,07,02,19,18,24.90
2009,07,02,19,19,24.90
2009,07,02,19,20,25.00
2009,07,02,19,21,25.00
2009,07,02,19,22,24.90
2009,07,02,19,23,24.90
2009,07,02,19,24,24.90
2009,07,02,19,25,24.90
2009,07,02,19,26,24.90
2009,07,02,19,27,24.90
2009,07,02,19,28,24.90
2009,07,02,19,29,24.90
2009,07,02,19,30,24.90
2009,07,02,19,31,24.80
2009,07,02,19,32,24.70
2009,07,02,19,33,24.70
2009,07,02,19,34,24.70
2009,07,02,19,35,24.70
2009,07,02,19,36,24.70
2009,07,02,19,37,24.70
2009,07,02,19,38,24.70
2009,07,02,19,39,24.70
2009,07,02,19,40,24.70
2009,07,02,19,41,24.70
2009,07,02,19,42,24.70
2009,07,02,19,43,24.70
2009,07,02,19,44,24.70
2009,07,02,19,45,24.70
2009,07,02,19,46,24.70
2009,07,02,19,47,24.70
2009,07,02,19,48,24.70
2009,07,02,19,49,24.70
2009,07,02,19,50,24.70
2009,07,02,19,51,24.70
2009,07,02,19,52,24.70
2009,07,02,19,53,24.70
2009,07,02,19,54,24.70
2009,07,02,19,55,24.70
2009,07,02,19,56,24.70
2009,07,02,19,57,24.80
2009,07,02,19,58,24.70
2009,07,02,19,59,24.70